星链-32284 (STARLINK-32284)

导读

STARLINK-32284是美国于2024年9月5日发射的星链卫星,隶属于SpaceX公司的星链星座项目。星链计划旨在搭建全球卫星互联网,为全球不同地区提供高速低延迟的宽带服务,该卫星入轨后将进一步扩充星链星座的网络覆盖能力,推动全球太空互联网基础设施的完善。

Basic Information
目录编号:
61005
目录名称:
STARLINK-32284
国际标识:
2024-158R
轨道中心:
EARTH
卫星名称:
星链-32284
卫星全名:
星链-32284 (STARLINK-32284)
卫星状态:
在轨 (已飞行729 天)
发射日期:
2024-09-05 UTC
国别 :
美国 (US)
星等 :
--
Orbit Information
数据来源 国际轨道数据 AOE轨道数据
星历时间 2026-09-04T13:07:58+0800
7小时前
查看轨道信息
2026-09-02T05:00:00+0800
2天前
查看轨道信息
半长轴 6840.865km 6840.855km
偏心率 0.0001026 0.000139
轨道倾角 53.158° 53.156°
近地点辐角 77.105° 80.248°
升交点赤经 313.511° 324.442°
平近点角 283.007° 313.197°
近地点 462.026km 461.767km
远地点 463.43km 463.669km
周期 93.848分钟 93.848分钟
每日圈数 15.34392 15.343951
Detailed Information
固有亮度:
5
最大亮度:
2.5
卫星平台:
Starlink V1.0
覆盖范围:
全球
运营商:
太空探索技术公司
运营商所在国:
美国
制造商(研发单位):
太空探索技术公司
制造商所在国:
美国
使用方式:
暂无
Satellite Introduction
Starlink 计划是 SpaceX 推出的全球卫星互联网项目,通过发射低轨道卫星,为全球尤其是偏远地区提供高速、低延迟的互联网服务。自 2019 年起,Starlink 已部署数千颗卫星,旨在缩小全球数字鸿沟,推动互联网普及。该项目还为军事、航空等行业提供通信支持,带来广泛经济效益。
2D Orbit Map
3D Orbit Map
Orbit Altitude Analysis Chart
Orbit Inclination Analysis Chart
Orbit Comprehensive Analysis Chart
View Comprehensive Chart